CST,Max TemperatureF,Mean TemperatureF,Min TemperatureF,Max Dew PointF,MeanDew PointF,Min DewpointF,Max Humidity, Mean Humidity, Min Humidity, Max Sea Level PressureIn, Mean Sea Level PressureIn, Min Sea Level PressureIn, Max VisibilityMiles, Mean VisibilityMiles, Min VisibilityMiles, Max Wind SpeedMPH, Mean Wind SpeedMPH, Max Gust SpeedMPH,PrecipitationIn, CloudCover, Events, WindDirDegrees
2013-1-1,19,12,6,19,15,7,100,100,100,30.19,30.09,29.95,10,10,2,15,9,20,0.00,6,,213
2013-1-2,30,19,8,30,22,9,100,100,100,30.18,29.99,29.90,10,10,7,22,13,30,0.01,6,Rain-Snow,295
2013-1-3,19,12,5,19,14,5,100,100,92,30.30,30.22,30.11,10,10,10,22,15,26,0.08,3,Snow,281
2013-1-4,24,14,5,18,13,5,100,88,64,30.11,30.07,30.02,10,10,10,18,11,24,0.00,0,,238
2013-1-5,23,14,5,23,13,5,100,99,86,30.14,29.98,29.91,10,10,5,26,10,37,0.01,3,Rain-Snow,288
2013-1-6,26,16,6,27,14,7,100,100,93,30.19,30.08,29.86,10,10,10,23,11,31,0.00,0,,226
2013-1-7,33,24,15,28,23,16,100,92,69,29.96,29.90,29.84,10,10,10,21,12,23,0.00,0,,243
2013-1-8,32,21,10,32,24,10,100,100,100,30.00,29.82,29.69,10,10,3,16,8,21,0.00,2,,216
2013-1-9,33,28,23,32,28,23,100,97,80,30.29,30.17,30.02,10,10,10,18,13,25,0.00,0,,224
2013-1-10,35,30,26,32,31,25,100,97,65,30.14,29.90,29.55,10,9,0,22,17,28,0.00,3,Fog-Rain,172
2013-1-11,33,24,14,34,29,14,100,100,100,29.55,29.43,29.32,10,2,0,30,15,41,0.19,8,Fog-Rain-Snow,220
2013-1-12,12,8,3,12,6,1,100,98,85,30.08,29.90,29.56,10,9,2,33,23,43,0.32,6,Rain-Snow,310
2013-1-13,8,4,0,9,3,0,100,97,85,30.20,30.13,30.04,10,10,10,18,13,23,0.00,4,Snow,294
2013-1-14,17,9,1,18,9,1,100,100,100,30.33,30.25,30.19,10,10,10,13,7,,0.00,2,,253
2013-1-15,24,14,5,19,12,5,100,90,68,30.19,30.03,29.78,10,10,10,18,10,23,0.00,1,,217
2013-1-16,37,24,10,37,26,9,100,98,85,30.23,29.91,29.73,10,10,3,25,15,32,0.05,4,Snow,305
2013-1-17,30,20,10,30,21,5,100,95,73,30.35,30.28,30.09,10,10,10,13,5,,0.00,7,,194
2013-1-18,41,34,26,37,32,27,100,92,70,30.08,29.85,29.77,10,10,10,17,12,24,0.00,0,,243
2013-1-19,37,20,1,37,22,0,100,89,68,30.30,29.98,29.75,10,10,10,40,17,52,0.00,2,Snow,307
2013-1-20,8,2,-4,9,0,-9,100,89,71,30.38,30.32,30.27,10,8,1,26,13,34,2.32,6,Rain-Snow,320
2013-1-21,1,-4,-9,-2,-9,-15,92,77,65,30.35,30.30,30.25,10,10,10,28,19,36,0.00,3,,304
2013-1-22,14,7,0,14,3,-8,100,85,66,30.27,30.21,30.10,10,10,10,14,7,,0.00,6,Snow,212
2013-1-23,14,5,-4,14,4,-11,100,89,67,30.50,30.27,30.09,10,10,10,21,11,29,0.00,2,,341
2013-1-24,12,2,-7,7,-4,-13,85,75,66,30.51,30.28,30.02,10,10,10,23,14,28,0.00,1,,153
2013-1-25,23,13,3,23,10,0,100,88,62,30.21,30.10,29.99,10,10,10,29,14,33,0.00,2,Snow,328
2013-1-26,30,16,1,28,12,0,100,90,73,30.21,30.05,29.89,10,10,10,20,10,28,0.00,1,,144
2013-1-27,32,30,28,32,31,28,100,99,93,29.89,29.76,29.69,10,6,0,20,13,24,0.00,5,Fog-Rain,164
2013-1-28,33,32,30,34,32,30,100,100,100,29.80,29.73,29.58,2,0,0,16,3,,0.00,8,Fog-Rain,128
2013-1-29,32,26,19,32,26,19,100,100,100,29.81,29.69,29.59,10,10,2,25,14,32,0.12,5,Rain-Snow,351
2013-1-30,19,14,8,19,14,9,100,100,100,29.83,29.80,29.78,10,10,5,26,23,34,0.54,8,Rain-Snow,337
2013-1-31,-5,-7,-9,-11,-12,-13,92,85,77,30.28,30.20,30.01,10,10,7,28,21,36,0.00,7,Snow,311